Flag Weather past 2 weeks in Leutkirch im Allgäu, Baden-Württemberg, Germany

Now
31 °F

Low clouds.


Feels Like: 31 °F
Forecast: 33 / 46 °F
Wind: 1 mph from Southeast

Location: Kempten

Current Time: Nov 29, 2014 at 10:36:30 AM

Latest Report: Nov 29, 2014 at 9:00 AM


Visibility: 0 mi

Pressure: 29.99 "Hg

Humidity: 100%

Dew point: 31 °F

Location of Leutkirch im AllgäuLocation

Historic Weather in Leutkirch im Allgäu — Graph

°F

Leutkirch im Allgäu temperature yesterday

Maximum temperature yesterday: 42 °F (at 1:00 PM)
Minimum temperature yesterday: 31 °F (at 8:00 AM)
Average temperature yesterday: 36 °F

Past Weeks' High & Low Weather Summary

 TemperatureHumidityPressure
High60 °F (Nov 23, 2:00 PM)100% (Nov 15, 8:00 AM)30.37 "Hg (Nov 15, 8:00 AM)
Low28 °F (Nov 20, 5:00 AM)46% (Nov 23, 2:00 PM)29.53 "Hg (Nov 15, 11:00 PM)
Average41 °F90%29.99 "Hg
* Reported Nov 14 9:00 AM — Nov 29 9:00 AM, Leutkirch im Allgäu, Weather by CustomWeather, © 2014

Note: Actual official high and low records may vary slightly from our data, if they occured in-between our weather recording intervals... More about our weather records

Advertising

Leutkirch im Allgäu weather history for previous 24 hours

 ConditionsComfort  
Time TempWeatherWind HumidityBarometerVisibility
9:00 AM
Nov 29
31 °FLow clouds.1 mph100%29.99 "Hg0 mi
8:00 AM30 °FLow clouds.2 mph99%30.00 "Hg0 mi
7:00 AM30 °FLow clouds.1 mph100%29.98 "Hg0 mi
6:00 AM29 °FLow clouds.1 mph99%29.98 "Hg1 mi
5:00 AM30 °FLow clouds.1 mph100%29.97 "Hg0 mi
4:00 AM30 °FLow clouds.2 mph100%29.96 "Hg0 mi
3:00 AM30 °FLow clouds.1 mph98%29.97 "Hg1 mi
2:00 AM31 °FLow clouds.1 mph100%29.96 "Hg0 mi
1:00 AM32 °FLow clouds.1 mph100%29.96 "Hg0 mi
12:00 AM31 °FLow clouds.1 mph99%29.95 "Hg1 mi
11:00 PM
Nov 28
32 °FLow clouds.No wind97%29.94 "Hg7 mi
9:00 PM35 °FFog.1 mph97%29.90 "Hg3 mi
8:00 PM34 °FPassing clouds.1 mph96%29.89 "Hg9 mi
7:00 PM35 °FClear.1 mph95%29.87 "Hg11 mi
6:00 PM36 °FClear.2 mph95%29.85 "Hg6 mi
5:00 PM38 °FOvercast.2 mph93%29.82 "Hg10 mi
3:00 PM40 °FSunny.3 mph84%29.80 "Hg25 mi
2:00 PM41 °FSunny.5 mph78%29.80 "Hg25 mi
1:00 PM42 °FSunny.2 mph75%29.80 "Hg22 mi
12:00 PM41 °FSunny.2 mph77%29.83 "Hg19 mi
11:00 AM38 °FSunny.1 mph80%29.86 "Hg19 mi
10:00 AM34 °FSunny.1 mph90%29.88 "Hg19 mi
Weather by CustomWeather, © 2014

See weather overviewHow to use our weather pages